Flag for U.S.A. Weather past 2 weeks in Oakland, California, U.S.A.

Now
62 °F

Passing clouds.


Feels Like: 62 °F
Forecast: 61 / 73 °F
Wind: No wind

Location: Metro Oakland International Airport

Current Time: Sep 1, 2015 at 5:22:50 AM

Latest Report: Sep 1, 2015 at 4:53 AM


Visibility: 10 mi

Pressure: 29.86 "Hg

Humidity: 80%

Dew point: 56 °F

Location of OaklandLocation

Historic Weather in Oakland — Graph

°F

Oakland temperature yesterday

Maximum temperature yesterday: 77 °F (at 1:53 PM)
Minimum temperature yesterday: 61 °F (at 12:53 AM)
Average temperature yesterday: 67 °F

Past Weeks' High & Low Weather Summary

 TemperatureHumidityPressure
High89 °F (Aug 28, 2:53 PM)90% (Aug 29, 10:53 AM)30.06 "Hg (Aug 29, 10:53 AM)
Low58 °F (Aug 26, 5:53 AM)29% (Aug 27, 12:53 PM)29.82 "Hg (Aug 17, 5:53 PM)
Average67 °F70%29.94 "Hg
* Reported Aug 17 3:53 AM — Sep 1 3:53 AM, Oakland, Weather by CustomWeather, © 2015

Note: Actual official high and low records may vary slightly from our data, if they occured in-between our weather recording intervals... More about our weather records

Advertising

Oakland weather history for previous 24 hours

 ConditionsComfort  
Time TempWeatherWind HumidityBarometerVisibility
3:53 AM
Tue, Sep 1
63 °FPassing clouds.6 mph81%29.86 "Hg10 mi
2:53 AM63 °FClear.6 mph81%29.86 "Hg10 mi
1:53 AM63 °FClear.8 mph81%29.87 "Hg10 mi
12:53 AM63 °FPassing clouds.8 mph81%29.87 "Hg10 mi
11:53 PM
Mon, Aug 31
64 °FPassing clouds.10 mph78%29.88 "Hg10 mi
10:53 PM64 °FPassing clouds.10 mph81%29.88 "Hg10 mi
9:53 PM63 °FPassing clouds.3 mph78%29.89 "Hg9 mi
7:53 PM65 °FPassing clouds.12 mph73%29.87 "Hg10 mi
6:53 PM68 °FPassing clouds.14 mph65%29.87 "Hg10 mi
5:53 PM71 °FPassing clouds.14 mph59%29.87 "Hg10 mi
4:53 PM73 °FPassing clouds.14 mph57%29.87 "Hg10 mi
3:53 PM76 °FPassing clouds.13 mph52%29.88 "Hg10 mi
2:53 PM76 °FSunny.14 mph54%29.89 "Hg10 mi
1:53 PM77 °FSunny.14 mph50%29.91 "Hg10 mi
12:53 PM75 °FSunny.9 mph54%29.92 "Hg10 mi
11:53 AM72 °FSunny.5 mph59%29.94 "Hg10 mi
10:53 AM69 °FSunny.5 mph66%29.95 "Hg10 mi
9:53 AM67 °FSunny.3 mph73%29.95 "Hg10 mi
8:53 AM66 °FPassing clouds.7 mph73%29.95 "Hg10 mi
7:53 AM65 °FPassing clouds.7 mph76%29.94 "Hg10 mi
6:53 AM63 °FPassing clouds.7 mph81%29.93 "Hg10 mi
5:53 AM63 °FClear.8 mph81%29.92 "Hg10 mi
Weather by CustomWeather, © 2015

See weather overviewHow to use our weather pages